Aeroporto :
LOGIN :

Iscrizione | Disclaimer

   EN    FR    IT 

 










Sommario :    VFR   VFR Marginale   IFR   IFR Intensivo   IFR Molto Intensivo
Visibilità : 
Base nubi : 
>= 8 km
>= 3000ft
5 / 8 km
1000 / 3000 ft
1500m / 5 km
500 / 1000 ft
800 / 1500m
200 / 500 ft
< 800m
< 200 ft
Simboli :   Temporali  Nebbia  Neve Forte  Precipitazioni Forti  Vento > 20 kt
SIGMETs :   Varie  Temporali  Ghiacco  Turbolenza  Onda orograficha  Ceneri Vulcaniche







- Altitudine del aeroporto : 1058 ft
- Codice IATA : SCN


EDDR - Saarbrücken

ULTIMO METAR :
  • 221750Z 06004KT CAVOK 25/13 Q1015 NOSIG

METARs OBSOLETI :
  • 221720Z 07004KT CAVOK 25/13 Q1015 NOSIG
  • 221650Z 32006KT 270V030 CAVOK 26/12 Q1014 NOSIG
  • 221620Z VRB05KT CAVOK 26/12 Q1014 NOSIG
  • 221550Z 29008KT 260V330 CAVOK 27/12 Q1015 NOSIG
  • 221520Z 33006KT 300V040 CAVOK 26/13 Q1015 NOSIG

TAF TAF EDDR
Valido dal 22 a 18 ore il 23 a 18 ore UTC


221700Z 2218/2318 01004KT CAVOK
BECMG 2309/2311 31005KT
Nessun NOTAM noto per questo aeroporto.



MetMap, La meteo Aeronautica in un colpo d'occhio ! - Copyright ORBIFLY Dicembre 2007 - Disclaimer

ORBIFLY MET'MAP TEAM :

Programmazione e sviluppo : Alexandra Zaïnal
Concezione e sviluppo : Baudouin d'Aumeries
Co-Programmazione e sviluppo : Marc-Olivier Méhu
Supporto tecnico e logistico : Manuel Goepfert
Aiuto per la traduzione : Arnaldo La Scala

Contatto : metmap@orbifly.com




FONTI E CREDITI :

   NOAA